Date,TemperatureHighF,TemperatureAvgF,TemperatureLowF,DewpointHighF,DewpointAvgF,DewpointLowF,HumidityHigh,HumidityAvg,HumidityLow,PressureMaxIn,PressureMinIn,WindSpeedMaxMPH,WindSpeedAvgMPH,GustSpeedMaxMPH,PrecipitationSumIn
2013-3-25,77.0,66.8,53.6,40.6,33.9,23.8,59,33,16,30.01,29.83,8,2,16,0.01
2013-3-26,69.3,54.8,46.2,40.7,27.2,14.6,65,38,16,30.22,30.00,11,3,17,0.00
2013-3-27,64.8,51.2,40.5,38.1,30.2,19.4,76,49,19,30.28,30.17,8,2,14,0.00
2013-3-28,74.1,54.9,36.1,45.5,33.8,21.2,95,55,16,30.27,30.14,7,1,12,0.00
2013-3-29,77.0,59.5,41.5,51.4,36.4,24.4,94,52,16,30.30,30.15,8,1,12,0.00
2013-3-30,81.0,63.8,44.1,54.3,45.3,40.8,91,56,27,30.24,30.07,7,1,14,0.00
2013-3-31,84.0,71.2,60.4,57.2,51.8,43.4,76,54,26,30.14,29.94,8,2,16,0.00
2013-4-1,86.4,73.6,63.0,66.4,61.1,53.8,91,67,41,29.99,29.88,10,2,18,0.00
2013-4-2,85.3,72.1,59.4,65.9,56.8,45.3,100,65,29,30.06,29.95,9,2,13,0.00
2013-4-3,86.2,72.0,60.3,68.9,63.0,56.9,98,76,46,30.06,29.92,8,1,14,0.40
2013-4-4,75.6,70.6,66.4,71.0,68.6,65.5,100,93,79,29.99,29.81,9,2,20,0.12
2013-4-5,78.8,68.8,58.1,69.4,63.6,56.6,97,84,51,29.98,29.77,10,2,16,0.07
2013-4-6,78.3,65.7,54.5,61.3,56.7,52.5,96,75,49,30.12,29.97,9,3,17,0.00
2013-4-7,82.6,69.3,56.5,68.5,59.2,56.4,100,74,43,30.14,30.03,8,1,14,0.00
2013-4-8,84.9,71.8,57.9,68.4,60.5,56.9,98,71,42,30.13,30.02,7,1,13,0.00
2013-4-9,86.7,73.5,61.3,70.6,62.0,57.1,99,71,41,30.15,30.05,8,2,17,0.00
2013-4-10,90.0,74.2,59.0,71.7,64.4,57.9,97,75,37,30.10,29.94,9,2,15,0.00
2013-4-11,91.2,80.6,72.7,73.4,71.4,68.1,97,76,48,29.98,29.78,10,3,17,0.00
2013-4-12,86.5,79.3,75.6,74.7,72.5,69.9,93,80,60,29.87,29.77,11,3,17,0.00
2013-4-13,90.9,78.1,69.1,71.6,69.0,63.6,99,77,42,29.95,29.84,6,1,11,0.00
2013-4-14,90.9,75.8,67.3,75.1,69.0,63.0,100,81,54,29.95,29.77,9,2,20,1.35
2013-4-15,91.8,76.8,65.5,68.0,65.3,62.8,99,71,40,30.05,29.87,7,1,13,0.00
2013-4-16,88.2,77.2,68.0,72.9,68.9,63.9,99,77,56,30.13,30.02,9,2,17,0.00
2013-4-17,86.4,74.4,65.1,71.8,66.8,62.9,100,79,49,30.13,30.01,10,2,15,0.00
2013-4-18,89.4,78.0,65.5,72.3,67.9,63.5,100,74,45,30.04,29.91,8,1,15,0.00
2013-4-19,93.2,81.0,73.6,74.8,72.2,67.6,96,76,46,29.99,29.87,9,2,17,0.02
2013-4-20,75.7,67.6,59.7,71.3,63.6,56.8,97,87,73,30.14,29.92,7,2,14,0.00
2013-4-21,81.1,69.0,59.9,72.2,66.5,57.2,100,92,71,30.12,30.00,8,2,15,0.46
2013-4-22,79.2,69.7,64.9,71.1,68.0,63.8,100,95,71,30.07,29.97,10,2,17,0.04
2013-4-23,82.0,70.9,62.1,67.6,62.4,57.2,100,77,45,30.10,30.00,9,2,16,0.00
2013-4-24,88.0,72.3,55.4,66.7,60.9,55.0,99,71,37,30.13,30.02,5,1,11,0.00
2013-4-25,90.5,75.9,60.4,69.8,62.6,57.1,98,67,36,30.18,30.07,5,1,9,0.00
2013-4-26,89.1,76.1,62.6,70.3,65.0,61.2,96,71,42,30.22,30.12,8,1,15,0.00
2013-4-27,86.7,75.5,64.4,71.2,65.7,62.3,99,74,45,30.20,30.07,8,2,17,0.00
2013-4-28,84.6,74.4,64.0,70.1,65.6,62.2,99,76,49,30.11,29.96,9,2,16,0.00
2013-4-29,88.3,76.8,65.8,71.8,65.6,55.2,97,71,39,30.00,29.85,7,2,13,0.50
2013-4-30,89.8,75.3,68.2,72.3,68.4,62.7,100,83,42,30.00,29.87,9,1,17,0.45
2013-5-1,78.8,72.0,68.0,74.4,70.8,67.2,100,96,78,30.00,29.91,8,1,16,0.47
2013-5-2,76.1,70.2,66.0,72.5,69.8,66.0,100,98,86,29.94,29.81,5,1,11,2.03
2013-5-3,81.9,72.2,68.0,73.2,69.5,68.0,100,92,66,29.82,29.67,11,2,22,0.05
2013-5-4,86.4,75.2,69.1,73.8,69.9,67.4,100,85,58,29.77,29.63,9,1,21,0.02
2013-5-5,80.2,70.9,61.5,69.1,54.5,44.3,99,61,29,29.91,29.72,10,3,21,0.00
2013-5-6,78.6,69.6,60.1,63.0,56.2,50.2,90,64,40,29.98,29.86,7,2,14,0.00
2013-5-7,81.5,68.2,53.4,62.1,56.4,51.9,96,69,42,30.02,29.92,8,2,18,0.00
2013-5-8,84.6,71.3,57.4,66.2,60.0,56.5,98,71,42,30.10,29.99,7,1,12,0.00
2013-5-9,88.5,74.0,58.5,67.9,61.3,55.3,98,69,33,30.13,30.03,6,1,10,0.00
2013-5-10,91.9,78.0,63.9,73.6,68.1,62.8,99,75,41,30.10,29.95,8,1,13,0.00
2013-5-11,92.3,78.6,68.2,74.0,70.2,65.7,99,77,47,30.02,29.92,9,1,14,0.00
2013-5-12,91.9,79.4,67.6,73.8,67.9,65.2,96,70,44,30.00,29.90,8,2,14,0.00
2013-5-13,86.2,74.5,63.0,68.5,59.7,46.6,97,64,31,30.10,29.96,8,2,14,0.00
2013-5-14,86.0,70.7,53.6,59.1,52.1,40.7,95,58,21,30.19,30.08,8,1,11,0.00
2013-5-15,72.3,61.1,56.8,65.8,56.9,55.0,95,86,69,30.18,30.13,0,0,1,0.00
2013-5-16,88.5,80.2,63.1,67.8,62.6,57.7,95,57,37,30.10,29.97,6,2,13,0.00
2013-5-17,90.3,77.9,63.3,70.2,65.3,61.0,95,68,39,30.07,29.99,8,2,14,0.00
2013-5-18,92.8,80.1,66.9,74.1,69.1,61.8,98,72,38,30.09,29.96,7,1,13,0.00
2013-5-19,90.7,77.7,71.1,75.6,72.8,69.8,100,86,54,30.06,29.95,7,1,17,0.45
2013-5-20,90.7,76.6,68.0,77.8,71.6,67.1,100,87,48,30.06,29.94,12,1,24,1.33
2013-5-21,85.1,74.2,69.8,76.1,72.0,69.1,100,93,69,30.01,29.91,4,1,10,0.32
2013-5-22,89.1,76.2,68.4,77.1,72.3,68.4,100,89,54,29.95,29.88,7,1,11,0.08
2013-5-23,93.0,78.6,68.7,77.6,71.7,66.5,100,82,47,29.97,29.87,6,1,12,0.01
2013-5-24,96.3,82.0,69.1,77.7,68.6,59.7,100,69,31,30.06,29.93,8,1,13,0.00
2013-5-25,86.9,76.9,66.9,72.7,64.8,59.8,98,69,42,30.17,30.04,8,2,14,0.00
2013-5-26,87.4,73.8,58.8,67.3,60.4,50.9,97,66,29,30.19,30.10,8,1,12,0.00
2013-5-27,87.8,75.9,63.3,69.9,63.7,59.7,97,69,40,30.16,30.06,8,2,16,0.00
2013-5-28,89.6,78.6,67.6,72.9,69.8,65.2,95,76,54,30.12,30.02,8,2,16,0.00
2013-5-29,87.3,78.1,72.1,77.5,73.8,70.8,98,87,60,30.10,30.03,10,2,19,0.40
2013-5-30,85.8,76.4,71.4,77.5,74.2,70.6,100,93,72,30.10,30.03,10,2,18,0.21
2013-5-31,87.3,79.3,72.3,76.1,72.3,70.5,97,80,62,30.08,30.00,7,2,14,0.02
2013-6-1,88.9,80.2,72.5,77.6,74.8,71.8,99,84,64,30.05,29.93,11,2,20,0.00
2013-6-2,93.0,81.1,74.3,79.7,75.6,72.0,100,85,55,29.99,29.83,8,1,14,0.04
2013-6-3,91.4,80.4,73.2,80.2,75.6,73.1,100,86,58,29.97,29.84,5,1,10,0.01
2013-6-4,90.7,78.9,72.0,76.7,74.7,72.0,100,88,58,30.01,29.90,6,1,11,0.63
2013-6-5,88.3,77.7,72.3,79.2,75.2,72.3,100,92,67,29.99,29.88,7,1,13,0.27
2013-6-6,79.7,76.0,73.2,78.9,75.1,72.4,100,97,82,29.89,29.62,10,2,19,1.67
2013-6-7,90.9,83.4,74.3,76.9,74.8,72.5,99,76,59,29.92,29.73,6,2,14,0.00
2013-6-8,90.9,78.0,71.2,80.3,74.0,69.7,100,89,64,30.07,29.91,8,1,18,1.09
2013-6-9,91.6,80.3,70.7,79.9,75.0,70.7,100,85,60,30.08,29.99,6,1,14,0.01
2013-6-10,96.3,81.3,73.9,78.8,74.9,68.3,100,84,44,30.07,29.97,13,1,22,0.20
2013-6-11,92.1,79.2,72.9,81.4,75.8,72.5,100,90,61,30.06,29.98,6,1,14,0.19
2013-6-12,97.3,83.0,71.1,80.6,73.9,70.1,100,77,43,30.06,29.95,7,1,13,0.01
2013-6-13,96.8,84.7,73.9,79.3,74.7,72.0,98,74,46,30.00,29.85,6,1,10,0.00
2013-6-14,93.6,84.3,76.1,77.4,74.3,69.0,97,74,47,29.90,29.80,8,2,14,0.00
2013-6-15,92.3,82.1,77.0,80.2,76.5,73.3,100,84,65,30.04,29.87,9,1,15,0.24
2013-6-16,92.5,83.4,78.8,79.8,76.8,74.1,92,81,62,30.06,29.98,9,2,14,0.00
2013-6-17,95.0,81.6,72.9,82.3,77.8,71.2,100,89,55,30.05,29.94,13,1,30,2.00
2013-6-18,95.4,82.6,72.9,81.1,76.3,72.9,100,84,53,30.03,29.92,7,1,11,0.09
2013-6-19,96.1,88.2,74.8,79.7,76.9,73.1,100,71,53,30.00,29.91,6,1,13,0.02
2013-6-20,96.6,83.2,73.0,78.9,74.7,70.8,100,78,46,30.06,29.97,8,1,13,0.50
2013-6-21,93.7,78.2,71.6,79.7,74.0,71.6,100,89,54,30.09,30.00,7,0,14,0.83
2013-6-22,94.3,80.0,72.0,81.6,74.5,69.1,100,86,48,30.09,30.01,7,1,19,0.01
2013-6-23,92.7,80.5,71.8,79.6,75.9,71.8,100,87,56,30.13,30.05,7,1,14,0.30
2013-6-24,93.9,81.9,74.1,79.8,75.9,72.9,100,84,54,30.16,30.05,7,1,12,0.15
2013-6-25,93.4,83.3,72.9,80.1,74.9,69.8,100,78,48,30.13,30.00,7,1,15,0.01
2013-6-26,94.8,81.9,75.6,79.6,75.5,71.8,100,82,50,30.05,29.96,9,1,17,0.00
2013-6-27,95.4,82.4,71.4,78.2,74.5,71.3,100,79,49,30.01,29.88,8,1,17,0.00
2013-6-28,93.9,81.1,74.1,79.6,75.9,71.8,100,86,55,29.93,29.75,8,1,21,0.15
2013-6-29,91.4,81.8,74.7,80.3,76.1,70.9,100,84,58,29.82,29.72,8,1,14,0.01
2013-6-30,91.4,77.5,75.2,79.4,75.8,73.0,100,95,62,29.85,29.77,7,1,13,0.19
2013-7-1,86.9,77.2,73.4,78.0,74.9,72.7,100,93,72,30.00,29.83,7,2,17,0.37
2013-7-2,87.4,77.9,73.4,81.4,75.8,73.5,100,94,72,30.07,29.95,7,1,12,0.11
2013-7-3,92.3,78.5,73.4,79.6,76.2,73.5,100,93,62,30.11,30.02,11,1,23,0.44
2013-7-4,92.3,78.8,71.6,81.7,75.1,70.4,100,90,57,30.14,30.05,11,1,20,0.41
2013-7-5,91.2,81.2,72.1,81.7,75.6,71.3,100,84,54,30.14,30.03,9,2,17,0.04
2013-7-6,92.3,83.4,74.1,78.8,75.8,72.9,100,79,56,30.10,30.01,10,2,17,0.00
2013-7-7,93.0,84.5,74.5,79.7,75.4,71.4,100,76,51,30.11,30.01,8,2,14,0.00
2013-7-8,93.7,83.9,75.4,80.2,76.0,73.6,100,79,54,30.14,30.04,7,1,13,0.00
2013-7-9,92.7,82.8,72.9,79.5,73.8,69.5,100,76,49,30.14,30.03,8,1,14,0.00
2013-7-10,95.0,81.8,73.0,78.7,75.0,71.9,100,82,51,30.06,29.93,7,1,12,0.08
2013-7-11,94.8,82.1,74.5,78.5,75.2,70.4,100,82,48,30.00,29.87,10,1,17,0.06
2013-7-12,91.4,80.5,74.1,79.8,76.4,74.0,100,88,60,29.92,29.85,4,0,8,0.24
2013-7-13,93.6,79.5,72.9,78.4,75.1,71.5,100,88,51,29.98,29.87,10,1,19,0.12
2013-7-14,92.8,78.7,73.2,79.4,75.6,73.1,100,91,60,30.07,29.95,7,1,14,0.07
2013-7-15,88.0,79.8,70.9,78.8,75.1,70.9,100,86,68,30.09,29.99,7,2,17,0.00
2013-7-16,90.1,79.5,74.7,79.4,76.0,73.0,100,90,63,30.13,30.03,9,1,19,0.13
2013-7-17,91.8,79.7,74.1,80.2,76.1,73.5,100,90,58,30.14,30.03,8,1,18,0.12
2013-7-18,87.8,79.1,72.7,79.5,74.3,72.7,100,86,65,30.10,30.01,9,1,17,0.00
2013-7-19,120.0,78.0,73.2,99.9,74.9,72.9,100,92,61,30.11,29.99,49,1,97,1.07
2013-7-20,92.7,78.3,73.6,81.9,76.1,73.6,100,94,63,30.08,30.01,4,0,8,0.01
2013-7-21,95.5,83.3,73.2,81.9,77.0,73.2,100,83,56,30.10,29.99,5,1,13,0.06
2013-7-22,95.2,80.3,74.8,81.2,76.7,73.7,100,90,56,30.09,29.97,7,1,11,0.54
2013-7-23,86.0,77.7,73.9,82.3,76.3,74.0,100,96,81,30.06,29.93,9,1,14,0.14
2013-7-24,89.1,81.1,75.4,81.0,77.7,74.3,100,90,70,29.97,29.84,8,1,14,0.06
2013-7-25,89.6,81.3,74.3,80.1,77.8,74.4,100,90,69,29.95,29.83,8,1,14,0.05
2013-7-26,94.5,84.1,74.8,80.7,77.3,73.9,100,82,56,29.98,29.90,7,1,9,0.00
2013-7-27,96.6,81.9,74.3,82.6,77.0,74.4,100,87,50,29.96,29.85,8,1,15,0.00
2013-7-28,94.6,83.0,73.4,81.7,75.7,72.2,100,80,52,30.03,29.94,7,1,16,0.00
2013-7-29,94.5,81.0,72.3,80.8,75.6,39.5,100,86,55,30.09,29.99,4,1,12,0.01
2013-7-30,118.0,87.7,74.1,82.4,76.4,72.6,100,71,49,30.15,30.04,7,2,11,0.01
2013-7-31,95.4,84.5,75.6,81.5,76.6,71.6,100,78,52,30.11,29.97,8,1,16,0.02
2013-8-1,118.0,78.4,74.1,99.9,77.1,74.2,100,96,65,30.04,29.94,4,0,8,0.07
2013-8-2,99.9,87.1,73.8,88.0,74.9,69.7,100,69,44,30.00,29.91,7,1,11,0.00
2013-8-3,94.6,81.8,75.0,81.8,76.9,72.9,100,87,50,30.06,29.96,9,1,18,0.21
2013-8-4,93.6,82.4,75.2,83.5,78.5,75.3,100,89,60,30.05,29.94,8,1,13,0.01
2013-8-5,96.6,85.1,76.8,83.7,79.1,74.8,100,84,52,29.98,29.87,9,1,18,0.18
2013-8-6,96.3,85.9,74.5,81.4,78.3,74.5,100,79,56,29.95,29.86,11,1,17,0.01
2013-8-7,95.5,83.4,76.8,83.6,78.6,75.8,100,87,55,29.95,29.88,8,1,11,0.32
2013-8-8,94.5,84.2,76.8,81.3,77.9,74.5,100,83,54,30.01,29.92,7,1,11,0.33
2013-8-9,94.8,84.1,76.3,81.7,76.8,73.2,100,80,53,30.04,29.94,8,1,14,0.00
2013-8-10,97.3,85.1,73.6,80.6,76.2,73.4,100,77,51,30.10,30.00,7,1,11,0.00
2013-8-11,97.3,85.6,75.4,82.1,76.7,71.0,100,77,46,30.13,30.01,5,1,11,0.00
2013-8-12,95.9,85.3,74.7,81.4,76.4,71.6,100,77,53,30.09,29.95,5,1,9,0.00
2013-8-13,98.6,86.8,75.0,80.0,75.7,68.5,100,73,40,30.02,29.88,4,1,8,0.00
2013-8-14,97.2,82.8,75.2,81.8,76.6,73.0,100,84,50,29.99,29.86,8,1,14,0.22
2013-8-15,96.1,83.7,74.5,81.8,76.2,72.2,100,81,49,30.01,29.88,5,1,11,0.00
2013-8-16,95.4,82.6,-15.7,80.8,76.7,-35.0,98,84,35,30.03,29.93,49,1,49,0.06
2013-8-17,96.1,82.1,76.1,83.4,78.3,75.5,100,90,55,30.06,29.95,102,1,102,0.38
2013-8-18,92.7,82.6,75.7,83.1,77.4,73.8,100,86,59,30.07,29.97,8,1,14,0.04
2013-8-19,93.9,81.6,74.3,83.6,77.4,74.4,100,88,58,30.06,29.94,7,1,14,0.02
2013-8-20,95.4,85.2,75.9,81.9,76.8,72.6,100,78,49,30.06,29.95,7,1,14,0.00
2013-8-21,93.9,79.6,74.5,80.2,77.3,74.5,100,94,58,30.08,30.00,8,1,16,0.39
2013-8-22,92.8,80.2,76.6,83.7,78.2,75.0,100,94,65,30.06,29.96,7,1,13,0.04
2013-8-23,93.2,79.3,74.1,83.4,77.2,74.2,100,94,62,30.00,29.93,7,1,13,0.74
2013-8-24,93.7,79.4,73.9,84.9,76.8,74.0,100,93,62,30.09,29.97,9,1,21,0.06
2013-8-25,109.0,79.3,73.8,81.6,76.4,73.8,100,91,70,30.13,30.05,17,1,17,0.01
2013-8-26,89.6,80.2,73.4,81.0,76.7,73.5,100,90,67,30.11,29.98,8,1,16,0.21
2013-8-27,91.6,81.1,73.4,78.9,73.3,68.8,100,79,50,30.05,29.95,7,1,14,0.00
2013-8-28,92.3,80.8,69.6,79.3,71.3,67.5,100,76,47,30.03,29.93,5,1,10,0.00
2013-8-29,95.0,82.5,71.6,79.5,73.6,68.9,100,77,44,30.00,29.87,4,0,9,0.00
2013-8-30,96.3,82.6,73.4,80.5,76.0,73.4,100,82,50,29.95,29.83,5,0,11,0.02
2013-8-31,94.8,81.9,73.9,80.5,76.1,72.4,100,85,49,29.94,29.83,8,1,17,0.64
2013-9-1,95.5,81.2,72.0,80.1,75.2,72.0,100,85,49,29.97,29.84,9,1,20,0.11
2013-9-2,95.4,81.9,72.5,81.0,75.7,72.5,100,83,52,29.98,29.88,6,1,12,0.01
2013-9-3,95.0,83.9,73.2,81.4,75.7,72.6,100,79,49,29.99,29.87,6,1,11,0.00
2013-9-4,96.4,82.5,75.2,81.2,75.9,71.7,100,82,50,30.05,29.93,9,1,17,0.01
2013-9-5,95.4,81.7,72.5,81.0,76.2,72.5,100,85,53,30.07,29.96,4,1,11,0.00
2013-9-6,95.2,79.2,73.8,83.6,76.5,73.2,100,93,59,30.02,29.93,9,1,18,0.21
2013-9-7,92.7,79.0,71.8,81.4,74.8,71.6,100,88,57,29.99,29.89,7,1,14,0.01
2013-9-8,92.1,79.5,72.3,79.0,74.4,72.4,100,86,56,29.95,29.85,8,1,14,0.01
2013-9-9,93.0,80.4,70.9,78.2,72.7,66.3,100,81,45,29.98,29.90,6,1,14,0.00
2013-9-10,91.4,81.8,73.0,77.4,73.3,66.7,100,78,45,30.06,29.96,8,2,13,0.00
2013-9-11,92.8,82.6,74.5,78.8,74.3,69.6,100,79,49,30.05,29.96,8,2,13,0.00
2013-9-12,90.0,79.6,73.6,79.7,75.4,73.6,100,88,65,29.99,29.85,4,1,8,0.00
2013-9-13,95.0,82.0,71.1,80.1,73.8,68.2,100,79,45,29.87,29.74,4,1,8,0.00
2013-9-14,96.1,83.2,74.1,81.3,75.5,72.7,100,81,49,29.89,29.79,9,1,13,0.00
2013-9-15,93.9,81.6,76.3,81.4,76.6,74.6,100,85,54,30.03,29.93,7,1,10,0.00
2013-9-16,93.6,82.0,72.9,79.8,74.9,70.8,100,81,49,30.05,29.94,8,1,15,0.00
2013-9-17,91.6,80.6,73.4,79.3,75.2,72.6,100,85,55,30.03,29.92,11,2,18,0.01
2013-9-18,90.1,80.1,74.5,79.6,75.2,72.3,100,86,61,30.01,29.93,9,2,17,0.06
2013-9-19,91.6,80.1,73.2,79.1,74.0,70.8,100,83,53,30.02,29.94,8,1,14,0.00
2013-9-20,90.1,78.6,69.1,75.7,71.0,69.1,100,80,53,30.00,29.87,6,1,13,0.00
2013-9-21,92.3,80.4,68.7,79.1,71.4,68.2,100,77,46,29.91,29.72,5,1,12,0.00
2013-9-22,92.5,79.4,74.1,78.7,75.1,72.0,100,88,57,29.82,29.69,11,1,20,0.85
2013-9-23,87.3,77.0,73.9,81.4,76.4,74.0,100,98,80,29.93,29.80,5,0,11,0.91
2013-9-24,86.2,76.9,73.2,80.6,76.2,73.3,100,98,77,29.93,29.80,8,0,17,0.45
2013-9-25,83.1,77.4,72.9,77.2,75.2,72.9,100,93,75,29.83,29.74,6,1,11,0.05
2013-9-26,91.8,81.7,72.9,81.9,75.2,64.0,100,84,42,29.84,29.73,11,2,17,0.00
2013-9-27,81.9,73.9,70.3,77.0,72.7,70.4,100,96,77,29.93,29.82,8,2,16,0.19
2013-9-28,84.6,78.2,70.7,77.4,73.2,70.0,100,85,68,29.99,29.89,8,2,16,0.01
2013-9-29,89.4,77.5,69.4,75.7,71.3,63.4,100,83,44,29.97,29.87,9,1,16,0.00
2013-9-30,90.0,78.0,68.4,77.1,71.9,68.4,100,83,52,29.99,29.88,8,1,11,0.00
2013-10-1,89.6,78.7,71.4,77.7,73.2,70.8,100,84,61,30.04,29.95,8,1,13,0.00
2013-10-2,88.5,77.8,68.9,73.8,71.1,68.9,100,81,58,30.04,29.95,7,1,12,0.00
2013-10-3,91.8,78.8,68.2,77.4,71.6,68.2,100,81,50,30.04,29.95,8,1,12,0.00
2013-10-4,92.5,81.9,69.6,78.9,73.0,68.4,100,77,48,30.05,29.95,6,1,11,0.00
2013-10-5,90.7,78.2,69.3,78.2,73.2,69.3,100,86,58,30.03,29.92,7,1,12,0.06
2013-10-6,93.7,78.4,70.3,81.1,73.9,70.4,100,88,51,29.95,29.82,8,1,14,0.50
2013-10-7,86.4,76.4,72.3,81.4,75.4,71.7,100,97,79,29.85,29.71,9,1,20,1.04
2013-10-8,88.9,78.6,74.3,79.0,76.0,73.7,100,92,68,29.93,29.74,8,2,15,0.05
2013-10-9,80.6,73.5,67.5,73.7,70.9,67.2,100,92,74,30.02,29.90,9,3,17,0.00
2013-10-10,86.7,75.2,65.8,72.0,68.0,65.6,100,81,50,30.03,29.93,6,2,11,0.00
2013-10-11,88.3,74.8,62.8,75.1,66.9,62.8,100,79,46,30.02,29.90,4,1,10,0.00
2013-10-12,88.0,74.9,64.4,73.5,65.5,58.1,100,77,38,30.01,29.92,6,1,9,0.00
2013-10-13,87.1,75.9,63.3,73.0,64.5,58.7,100,71,40,30.05,29.95,7,1,10,0.00
2013-10-14,87.3,75.6,68.2,72.0,68.9,28.3,100,82,50,30.01,29.89,26,2,26,0.00
2013-10-15,82.8,73.8,68.9,75.0,71.7,68.6,100,93,75,29.97,29.85,4,1,8,0.00
2013-10-16,88.9,79.5,71.2,76.1,72.4,68.5,100,81,54,29.95,29.85,4,1,8,0.02
2013-10-17,90.7,78.1,69.4,78.7,71.1,64.9,100,82,43,29.95,29.85,4,0,9,0.00
2013-10-18,92.5,80.3,69.4,78.7,72.6,67.6,100,80,46,29.96,29.85,6,1,11,0.00
2013-10-19,91.4,80.7,70.7,78.9,73.4,69.5,100,80,50,29.93,29.82,5,1,12,0.00
2013-10-20,87.6,79.0,73.6,77.9,75.2,40.7,100,89,69,29.94,29.82,97,1,11,0.00
2013-10-21,92.7,79.9,71.1,79.9,75.5,71.1,100,88,56,29.97,29.85,6,1,12,0.00
2013-10-22,91.2,80.4,72.7,80.1,74.6,70.4,100,84,56,29.91,29.76,8,2,16,0.00
2013-10-23,83.5,75.0,65.7,74.2,64.3,52.8,100,72,38,29.99,29.76,8,2,16,0.00
2013-10-24,71.6,64.7,60.4,59.8,54.5,49.2,75,69,63,30.13,29.98,6,2,12,0.00
2013-10-25,81.1,70.9,54.0,61.4,56.3,51.0,100,64,37,30.22,30.11,5,1,11,0.00
2013-10-26,80.4,67.1,53.4,60.2,55.2,48.4,100,71,37,30.19,30.06,5,1,9,0.00
2013-10-27,80.1,69.8,55.6,61.5,55.9,51.7,100,64,38,30.12,30.02,8,2,11,0.00
2013-10-28,84.0,70.8,53.2,66.5,61.4,53.0,100,75,45,30.17,30.07,6,1,14,0.00
2013-10-29,84.2,71.9,60.1,70.5,64.8,60.1,100,81,52,30.20,30.11,10,2,16,0.00
2013-10-30,84.6,78.2,65.3,72.2,68.0,65.3,100,72,55,30.20,30.08,6,2,11,0.00
2013-10-31,88.0,77.9,64.4,75.7,68.6,64.1,100,75,47,30.11,29.95,8,2,15,0.00
2013-11-1,89.1,81.1,69.1,76.5,70.2,63.9,100,72,46,29.98,29.82,9,2,17,0.00
2013-11-2,76.3,69.6,61.3,75.6,68.8,61.4,100,97,88,29.95,29.77,6,1,14,0.61
2013-11-3,76.5,65.5,56.8,62.5,55.5,45.1,100,74,35,30.10,29.93,7,1,14,0.01
2013-11-4,79.2,68.8,62.2,67.4,61.7,56.5,95,79,50,30.15,30.07,7,0,12,0.01
2013-11-5,83.7,74.3,65.3,71.2,69.4,65.0,100,86,59,30.14,30.06,4,0,18,0.04
2013-11-6,81.0,71.0,66.9,73.4,69.8,67.0,100,96,72,30.10,30.05,1,0,7,0.01
2013-11-7,89.4,74.6,66.7,74.7,70.0,66.8,100,86,54,30.03,29.93,3,0,8,0.11
2013-11-8,77.4,66.3,61.5,68.0,64.6,56.0,100,95,72,30.11,29.97,8,1,14,0.00
2013-11-9,80.6,67.2,59.9,68.0,62.5,59.7,100,87,58,30.17,30.08,7,1,12,0.00
2013-11-10,82.4,70.9,61.9,70.3,66.0,61.2,100,86,56,30.16,30.05,6,1,11,0.00
2013-11-11,77.4,65.7,63.1,69.8,65.0,63.2,100,98,78,30.15,30.09,4,1,9,0.00
2013-11-12,79.9,73.4,67.3,66.2,64.3,60.6,85,74,59,30.07,29.97,6,1,11,0.00
2013-11-13,93.2,61.1,52.5,75.2,50.7,45.6,85,69,53,30.25,29.68,13,4,22,0.00
2013-11-14,77.0,61.6,48.7,57.2,52.1,47.1,96,74,41,29.98,29.85,8,1,16,0.00
2013-11-15,74.8,66.3,56.8,66.6,62.4,53.9,97,88,70,29.87,29.74,4,0,9,0.07
2013-11-16,76.5,70.7,66.9,73.4,69.7,65.8,100,97,87,29.81,29.69,4,1,8,0.15
2013-11-17,86.4,76.4,68.7,75.7,70.0,67.3,100,82,54,29.75,29.65,6,1,12,0.01
2013-11-18,83.8,74.8,68.0,73.5,68.9,66.6,100,83,61,29.70,29.57,4,1,8,0.00
2013-11-19,77.2,70.7,64.0,70.7,63.6,56.6,100,80,52,29.65,29.54,7,2,12,0.00
2013-11-20,80.6,71.6,64.0,72.4,67.1,61.6,96,86,70,29.78,29.64,7,1,14,0.00
2013-11-21,79.3,72.7,69.6,71.7,70.0,68.4,100,91,76,29.86,29.76,8,1,14,0.11
2013-11-22,80.6,73.4,68.2,73.4,68.7,64.5,100,86,63,29.87,29.77,7,1,12,0.08
2013-11-23,86.7,72.7,63.1,71.7,64.6,57.7,100,79,41,29.79,29.65,5,0,9,0.00
2013-11-24,70.9,65.3,61.3,66.4,58.4,52.1,95,79,65,29.92,29.69,11,3,22,0.00
2013-11-25,75.4,68.3,63.3,62.0,56.2,51.6,81,66,48,29.92,29.74,11,2,19,0.00
2013-11-26,82.8,75.1,67.5,74.3,69.4,61.8,100,83,66,29.75,29.39,12,2,22,0.09
2013-11-27,75.4,62.4,42.8,72.7,56.4,36.4,97,81,60,29.88,29.34,11,4,114,0.21
2013-11-28,58.3,43.1,36.0,45.4,37.0,32.3,88,79,62,30.00,29.88,8,2,12,0.00
2013-11-29,71.2,62.1,50.5,59.4,54.2,48.5,97,76,59,30.04,29.95,9,3,17,0.00
2013-11-30,75.9,65.1,56.3,65.9,60.4,52.8,100,86,55,29.99,29.85,7,3,15,0.00
2013-12-1,75.0,66.3,61.5,67.4,63.4,61.3,100,91,70,29.86,29.64,6,2,11,0.00
2013-12-2,73.8,64.9,58.5,65.9,59.3,52.8,100,84,50,29.64,29.48,7,1,14,0.00
2013-12-3,78.3,65.7,53.6,64.7,57.4,52.7,100,77,49,29.66,29.54,5,0,10,0.00
2013-12-4,83.1,69.3,59.9,69.4,63.3,59.1,100,83,51,29.76,29.63,6,0,11,0.00
2013-12-5,84.6,72.1,60.8,70.8,64.8,60.5,100,80,51,29.85,29.73,6,1,11,0.00
2013-12-6,86.7,73.3,7.0,74.3,66.4,5.9,100,81,46,29.85,29.74,8,1,14,1.51
2013-12-7,85.1,73.6,64.0,72.0,65.0,57.9,100,78,42,30.17,29.82,5,0,8,0.00
2013-12-8,85.5,72.9,25.0,73.2,65.3,7.6,100,80,46,30.17,30.03,8,1,14,0.00
2013-12-9,85.5,73.8,64.0,73.0,66.2,9.3,100,79,48,30.13,30.01,7,1,14,0.00
2013-12-10,85.3,73.6,61.5,71.8,64.2,59.8,100,75,44,30.12,29.98,9,2,14,0.00
2013-12-11,83.3,69.5,57.9,67.2,61.2,53.1,90,76,53,30.19,30.07,8,2,14,0.00
2013-12-12,70.2,61.5,51.1,61.1,44.8,19.3,100,61,17,30.27,30.13,9,3,16,0.00
2013-12-13,74.7,60.9,48.9,57.7,50.7,40.6,91,71,44,30.21,30.06,7,1,100,0.00
2013-12-14,93.2,71.7,59.4,75.2,64.8,55.6,93,80,56,30.22,29.99,10,1,17,0.00
2013-12-15,73.8,67.7,58.1,71.3,62.9,55.1,97,85,70,30.25,29.97,8,2,15,0.14
2013-12-16,65.8,54.6,44.2,55.5,46.3,40.9,91,75,46,30.35,30.23,6,1,11,0.00
2013-12-17,72.3,55.9,44.2,52.6,47.3,41.2,91,75,46,30.37,30.26,5,1,10,0.00
2013-12-18,70.5,54.0,41.4,46.6,42.1,39.0,95,69,33,30.41,30.31,6,1,16,0.00
2013-12-19,77.0,57.5,40.6,59.2,48.6,38.8,96,76,39,30.41,30.28,5,0,9,0.00
2013-12-20,84.0,66.4,49.6,65.1,56.6,48.5,100,74,41,30.33,30.22,7,1,11,0.00
2013-12-21,86.4,73.9,63.5,72.4,67.6,60.8,100,82,52,30.27,30.14,8,2,16,0.00
2013-12-22,85.6,75.9,68.4,73.1,69.3,66.3,100,81,55,30.26,30.18,8,2,17,0.00
2013-12-23,88.5,75.9,68.7,74.3,68.9,63.6,100,81,48,30.29,30.17,8,1,14,0.00
2013-12-24,73.6,63.6,49.6,72.4,51.9,24.9,100,71,24,30.39,30.20,9,3,18,0.13
2013-12-25,75.4,58.7,45.5,56.9,48.4,38.0,95,70,41,30.38,30.27,9,1,15,0.00
2013-12-26,76.3,63.3,56.8,63.3,59.1,56.3,100,88,61,30.35,30.21,7,2,14,0.00
2013-12-27,70.2,63.9,59.0,65.1,61.5,57.3,97,92,82,30.38,30.28,7,2,12,0.00
2013-12-28,77.0,70.6,64.8,73.6,68.5,63.6,100,93,79,30.34,30.13,6,1,11,0.05
2013-12-29,81.3,72.8,65.8,75.4,71.0,65.6,100,94,76,30.14,29.99,10,2,15,0.30
2013-12-30,71.1,62.2,56.3,65.6,57.5,48.8,100,86,51,30.33,30.10,7,1,11,0.01
2013-12-31,69.6,61.6,56.1,55.0,51.4,43.9,93,71,41,30.43,30.29,99,2,99,0.00
2014-1-1,63.9,61.1,57.4,63.7,59.7,54.4,100,95,82,30.38,30.18,7,2,10,0.06
2014-1-2,81.1,68.3,59.2,74.4,66.8,54.5,100,95,70,30.18,29.92,12,2,23,0.44